Details From LIPR - Rimini Mil
To LIMJ - Genova Sestri
Flight Number -
Tags generated
Created
Modified
Stats Distance 164 nm / 305 km
Max Altitude 14,200 ft / 4,328 m
Waypoints 3
Social Downloads 1
Likes 0
Share VATSIM

Download

Looking for another format? Having issues loading an existing format? Contact us
Advertisement - Login to hide

Notes

Basic altitude profile: - Ascent Rate: 2500ft/min - Ascent Speed: 250kts - Cruise Altitude: 35000ft - Cruise Speed: 420kts - Descent Rate: 1500ft/min - Descent Speed: 250kts Options: - Use NATs: yes - Use PACOTS: yes - Use low airways: yes - Use high airways: yes

Route

LIPR BEROK LIMJ

ID Type Via Altitude Latitude Longitude Leg Dist Tot Dist Heading (true) Name
O LIPR APT - 0 ft / 0 m 44.02029˚ 12.61175˚ - 0 nm - Rimini Mil
BEROK FIX - 14,200 ft / 4,328 m 44.16556˚ 10.35167˚ 97 nm 97 nm 276° / 274° -
O LIMJ APT - 0 ft / 0 m 44.41196˚ 8.84187˚ 66 nm 164 nm 283° / 282° Genova Sestri

Altitude Profile

Weather

Temperature
Clouds and Precipitation
Forecast for 2017-01-16 18:00 UTC. Updated 2 hours ago
Winds

LIPR

Details ICAO LIPR (RMI)
Name Rimini Mil
Region Italy
Timezone Europe/Rome (UTC+1.0)
Stats Elevation 41 ft / 12 m (AMSL)
Location 44.020286° 12.611746°
Runways 1
Magnetic Variation 3.067° E

METAR

LIPR 161845Z 02018G28KT 9999 BKN040 BKN060 04/M03 Q1013 RMK OVC VIS MIN 9999 WIND THR31 04015KT BLU

Decode

TAF

Not found

Departure Runways

ID Width Length Bearing (true) Bearing (mag) Surface Threshold Offset Overrun Length
13 148 ft / 45 m 9,818 ft / 2,992 m 127.79° 124.72° Asphalt 1,030 ft / 314 m 846 ft / 258 m
31 148 ft / 45 m 9,818 ft / 2,992 m 307.81° 304.74° Asphalt 1,006 ft / 307 m 376 ft / 115 m

LIMJ

Details ICAO LIMJ (GOA)
Name Genova Sestri
Region Italy
Timezone Unknown (UTC+0.0)
Stats Elevation 13 ft / 4 m (AMSL)
Location 44.411957° 8.841866°
Runways 1
Magnetic Variation 2.284° E

METAR

LIMJ 161850Z 01015G28KT 340V060 CAVOK 06/M19 Q1013

Decode

TAF

TAF LIMJ 161700Z 1618/1718 01012KT CAVOK TEMPO 1618/1712 01015G30KT

Decode

Destination Runways

ID Width Length Bearing (true) Bearing (mag) Surface Threshold Offset Overrun Length
10 148 ft / 45 m 9,574 ft / 2,918 m 105.39° 103.11° Asphalt 0 ft / 0 m 0 ft / 0 m
28 148 ft / 45 m 9,574 ft / 2,918 m 285.41° 283.13° Asphalt 538 ft / 164 m 0 ft / 0 m

Approach Navaids

Runway Type Ident Frequency Range Bearing (true) Bearing (mag) Slope Elevation
28 Localiser GSE 109.30 MHz 18 nm / 33 km 287.30° 285.02° - 9 ft / 3 m (AMSL)
28 Glidescope GSE 109.30 MHz 10 nm / 19 km 287.30° 285.02° 3.17° 26 ft / 8 m (AMSL)
28 DME GSE 109.30 MHz 18 nm / 33 km - - - 26 ft / 8 m (AMSL)